GFSNW_prec_precacc24_057.txt.gz
Total_Precipitation_Accumulation
0.12 0.12 0.17 0.23 0.22 0.28 0.75 0.95 0.60 0.12 0.11 0.38 0.19 0.05 0.00 0.00 0.00 0.00 0.00 0.00 0.00 0.00 0.00 0.00 0.00 0.00 0.00 0.00 0.00 0.00 0.00 0.00 0.00 0.00 0.00 0.00 0.00 0.00 0.00 0.00 0.00 0.00 0.01 0.00
0.23 0.20 0.20 0.26 0.28 0.40 0.93 1.22 0.55 0.42 0.16 0.19 0.06 0.01 0.00 0.00 0.00 0.00 0.00 0.00 0.00 0.00 0.00 0.00 0.00 0.00 0.00 0.00 0.00 0.00 0.00 0.00 0.00 0.00 0.00 0.00 0.00 0.00 0.00 0.00 0.00 0.01 0.03 0.00
0.35 0.38 0.31 0.32 0.42 0.51 1.03 1.35 0.82 1.01 0.47 0.03 0.00 0.00 0.00 0.00 0.00 0.00 0.00 0.00 0.00 0.00 0.00 0.00 0.00 0.00 0.00 0.00 0.00 0.00 0.00 0.00 0.00 0.00 0.00 0.00 0.00 0.00 0.00 0.00 0.00 0.00 0.00 0.00
0.31 0.46 0.52 0.45 0.56 0.68 1.62 1.98 0.62 0.42 0.32 0.08 0.00 0.00 0.00 0.00 0.00 0.00 0.00 0.00 0.00 0.00 0.00 0.00 0.00 0.00 0.00 0.00 0.00 0.00 0.00 0.00 0.00 0.00 0.00 0.00 0.00 0.00 0.00 0.00 0.00 0.00 0.00 0.00
0.38 0.43 0.58 0.66 0.73 1.08 2.44 2.31 0.25 0.08 0.02 0.02 0.03 0.02 0.00 0.00 0.00 0.00 0.00 0.00 0.00 0.00 0.00 0.00 0.00 0.03 0.05 0.04 0.00 0.00 0.00 0.00 0.00 0.00 0.00 0.00 0.00 0.00 0.00 0.00 0.00 0.00 0.00 0.00
0.37 0.46 0.54 0.71 0.90 1.70 3.54 2.21 0.17 0.07 0.06 0.03 0.05 0.02 0.00 0.00 0.00 0.00 0.00 0.00 0.00 0.00 0.01 0.02 0.02 0.03 0.02 0.06 0.07 0.04 0.02 0.00 0.00 0.00 0.00 0.00 0.00 0.00 0.00 0.00 0.00 0.00 0.00 0.00
0.39 0.39 0.50 0.64 1.01 1.57 2.33 1.31 0.19 0.24 0.26 0.10 0.02 0.00 0.00 0.00 0.00 0.00 0.00 0.00 0.00 0.00 0.01 0.08 0.11 0.08 0.04 0.02 0.04 0.13 0.10 0.02 0.04 0.03 0.00 0.02 0.01 0.00 0.00 0.00 0.00 0.00 0.00 0.00
0.42 0.41 0.44 0.54 0.81 1.12 1.42 1.11 0.26 0.23 0.23 0.07 0.01 0.00 0.00 0.01 0.01 0.00 0.00 0.00 0.00 0.00 0.02 0.09 0.24 0.21 0.21 0.04 0.02 0.05 0.14 0.14 0.14 0.08 0.04 0.01 0.00 0.00 0.00 0.00 0.00 0.00 0.00 0.00
0.45 0.45 0.37 0.42 0.55 0.95 1.22 1.32 0.68 0.61 0.42 0.12 0.02 0.03 0.01 0.01 0.02 0.03 0.00 0.00 0.00 0.00 0.03 0.13 0.14 0.18 0.19 0.13 0.06 0.01 0.05 0.17 0.29 0.18 0.12 0.04 0.00 0.00 0.00 0.00 0.00 0.00 0.00 0.00
0.40 0.42 0.31 0.32 0.38 0.61 1.15 1.51 0.69 1.06 1.00 0.16 0.12 0.14 0.05 0.01 0.02 0.04 0.01 0.00 0.02 0.04 0.07 0.06 0.06 0.04 0.03 0.10 0.16 0.08 0.05 0.15 0.23 0.27 0.20 0.05 0.00 0.00 0.00 0.01 0.00 0.00 0.00 0.00
0.35 0.37 0.32 0.27 0.31 0.49 0.63 1.39 0.72 0.94 1.20 0.27 0.16 0.19 0.19 0.06 0.05 0.06 0.02 0.08 0.07 0.22 0.23 0.06 0.03 0.01 0.01 0.01 0.05 0.15 0.19 0.18 0.20 0.25 0.25 0.09 0.01 0.03 0.04 0.01 0.00 0.00 0.00 0.00
0.29 0.31 0.38 0.32 0.32 0.50 0.43 0.84 0.75 0.65 0.99 0.71 0.20 0.18 0.16 0.09 0.01 0.01 0.02 0.04 0.02 0.07 0.20 0.10 0.07 0.03 0.02 0.00 0.00 0.02 0.08 0.13 0.16 0.15 0.16 0.06 0.04 0.06 0.09 0.06 0.01 0.00 0.00 0.00
0.30 0.28 0.31 0.42 0.49 0.56 0.37 0.46 0.61 0.90 1.06 0.64 0.46 0.23 0.13 0.17 0.05 0.02 0.14 0.03 0.00 0.02 0.02 0.07 0.11 0.08 0.03 0.01 0.00 0.00 0.00 0.01 0.02 0.03 0.01 0.00 0.03 0.04 0.02 0.01 0.00 0.01 0.01 0.01
0.35 0.31 0.33 0.42 0.77 0.60 0.34 0.29 0.55 0.67 0.60 0.48 0.36 0.36 0.19 0.15 0.19 0.10 0.08 0.07 0.05 0.09 0.15 0.16 0.18 0.14 0.04 0.02 0.02 0.01 0.00 0.03 0.03 0.01 0.00 0.00 0.02 0.02 0.02 0.01 0.00 0.00 0.00 0.00
0.37 0.37 0.43 0.64 0.77 0.72 0.59 0.29 0.46 0.45 0.42 0.34 0.18 0.27 0.21 0.14 0.15 0.13 0.09 0.10 0.17 0.21 0.33 0.34 0.14 0.06 0.05 0.04 0.05 0.01 0.02 0.04 0.05 0.01 0.03 0.03 0.00 0.01 0.03 0.01 0.00 0.00 0.00 0.00
0.36 0.46 0.59 0.55 0.58 1.01 0.98 1.07 0.83 0.56 0.34 0.44 0.26 0.26 0.13 0.17 0.18 0.19 0.09 0.08 0.17 0.25 0.27 0.27 0.24 0.13 0.15 0.07 0.01 0.01 0.03 0.07 0.09 0.04 0.03 0.04 0.03 0.02 0.02 0.01 0.00 0.01 0.00 0.00
0.46 0.46 0.43 0.44 0.80 0.81 0.39 0.44 0.35 0.36 0.33 0.49 0.35 0.23 0.21 0.21 0.33 0.37 0.21 0.16 0.21 0.33 0.35 0.27 0.17 0.16 0.20 0.12 0.04 0.01 0.01 0.02 0.03 0.01 0.02 0.04 0.02 0.01 0.02 0.02 0.01 0.01 0.01 0.00
0.38 0.41 0.51 0.58 0.57 0.31 0.13 0.12 0.12 0.18 0.35 0.45 0.50 0.32 0.53 0.37 0.43 0.49 0.30 0.27 0.30 0.38 0.42 0.29 0.15 0.19 0.36 0.42 0.10 0.01 0.00 0.00 0.00 0.00 0.00 0.00 0.01 0.02 0.02 0.02 0.01 0.01 0.01 0.00
0.54 0.79 0.82 0.69 0.52 0.35 0.18 0.30 0.24 0.24 0.33 0.37 0.21 0.33 0.59 0.63 0.48 0.66 0.52 0.46 0.37 0.27 0.30 0.36 0.35 0.22 0.41 0.35 0.15 0.11 0.05 0.01 0.00 0.00 0.00 0.00 0.00 0.01 0.01 0.01 0.00 0.00 0.00 0.00
0.50 0.53 0.51 0.85 0.42 0.24 0.44 0.93 0.84 0.59 0.32 0.26 0.17 0.17 0.52 0.64 0.63 0.63 0.78 0.62 0.39 0.29 0.32 0.32 0.46 0.47 0.21 0.06 0.10 0.08 0.08 0.10 0.05 0.02 0.00 0.00 0.00 0.00 0.00 0.00 0.00 0.00 0.00 0.00
0.23 0.39 0.65 0.57 0.37 0.47 0.63 0.81 0.71 0.45 0.17 0.05 0.02 0.12 0.46 0.72 0.71 0.77 0.58 1.04 0.91 0.46 0.34 0.37 0.42 0.40 0.21 0.08 0.04 0.04 0.07 0.04 0.03 0.02 0.02 0.01 0.01 0.01 0.00 0.00 0.00 0.00 0.00 0.00
0.26 0.41 0.40 0.40 0.39 0.30 0.36 0.47 0.53 0.30 0.12 0.10 0.08 0.07 0.16 0.66 0.83 0.92 0.57 0.66 0.92 0.93 0.43 0.54 0.52 0.29 0.14 0.07 0.06 0.06 0.08 0.08 0.08 0.07 0.07 0.07 0.07 0.06 0.05 0.05 0.05 0.06 0.09 0.14
0.66 0.39 0.33 0.26 0.19 0.21 0.33 0.55 0.52 0.40 0.12 0.10 0.15 0.17 0.26 0.48 0.89 0.96 0.69 0.69 0.63 0.86 0.99 0.51 0.42 0.21 0.16 0.24 0.29 0.29 0.23 0.18 0.15 0.13 0.11 0.10 0.12 0.13 0.15 0.20 0.29 0.33 0.42 0.54
0.39 0.24 0.26 0.34 0.41 0.40 0.40 0.54 0.59 0.36 0.18 0.15 0.21 0.35 0.47 0.43 0.75 0.96 0.79 0.81 0.67 0.66 0.58 0.39 0.32 0.33 0.34 0.34 0.32 0.29 0.36 0.38 0.41 0.48 0.48 0.48 0.50 0.60 0.70 0.74 0.79 0.68 0.73 0.81
0.38 0.28 0.30 0.40 0.56 0.45 0.51 0.52 0.38 0.31 0.31 0.37 0.52 0.73 0.53 0.39 0.52 0.53 0.52 0.49 0.39 0.35 0.39 0.41 0.50 0.51 0.48 0.50 0.51 0.51 0.54 0.55 0.56 0.60 0.58 0.65 0.66 0.55 0.63 0.68 0.61 0.48 0.49 0.48
0.16 0.28 0.43 0.41 0.49 0.48 0.50 0.41 0.30 0.33 0.48 0.55 0.47 0.51 0.39 0.43 0.30 0.21 0.30 0.28 0.34 0.43 0.49 0.65 0.71 0.67 0.66 0.65 0.63 0.66 0.68 0.63 0.63 0.65 0.59 0.53 0.46 0.38 0.41 0.38 0.36 0.37 0.28 0.28
0.22 0.41 0.53 0.51 0.43 0.45 0.48 0.44 0.36 0.34 0.31 0.28 0.23 0.21 0.25 0.21 0.14 0.18 0.20 0.33 0.48 0.58 0.62 0.68 0.72 0.73 0.77 0.75 0.65 0.63 0.52 0.48 0.52 0.52 0.48 0.47 0.47 0.31 0.17 0.22 0.29 0.20 0.18 0.16

GFSNW_prec_precacc24_063.txt.gz
Total_Precipitation_Accumulation
0.09 0.09 0.12 0.16 0.16 0.25 0.69 1.00 0.76 0.17 0.15 0.53 0.42 0.20 0.02 0.00 0.00 0.00 0.00 0.00 0.00 0.00 0.00 0.00 0.00 0.00 0.00 0.00 0.00 0.00 0.00 0.00 0.00 0.00 0.00 0.00 0.00 0.00 0.00 0.00 0.00 0.00 0.01 0.00
0.16 0.13 0.14 0.18 0.17 0.38 0.87 1.28 0.67 0.45 0.25 0.33 0.21 0.11 0.01 0.00 0.00 0.00 0.00 0.00 0.00 0.00 0.00 0.00 0.00 0.00 0.00 0.00 0.00 0.00 0.00 0.00 0.00 0.00 0.00 0.00 0.00 0.00 0.00 0.00 0.00 0.01 0.03 0.00
0.22 0.26 0.24 0.27 0.31 0.46 1.09 1.60 1.04 1.02 0.68 0.20 0.05 0.04 0.02 0.00 0.00 0.00 0.00 0.00 0.00 0.00 0.00 0.00 0.00 0.00 0.00 0.00 0.00 0.00 0.00 0.00 0.00 0.00 0.00 0.00 0.00 0.00 0.00 0.00 0.00 0.00 0.00 0.00
0.15 0.30 0.42 0.41 0.49 0.63 1.72 2.23 0.86 0.46 0.43 0.28 0.10 0.02 0.00 0.00 0.00 0.00 0.00 0.00 0.00 0.00 0.00 0.00 0.00 0.00 0.01 0.00 0.00 0.00 0.00 0.00 0.00 0.00 0.00 0.00 0.00 0.00 0.00 0.00 0.00 0.00 0.00 0.00
0.17 0.22 0.46 0.60 0.73 1.06 2.54 2.51 0.36 0.15 0.11 0.04 0.09 0.09 0.01 0.00 0.00 0.00 0.00 0.00 0.00 0.00 0.00 0.00 0.00 0.03 0.05 0.04 0.00 0.00 0.00 0.00 0.00 0.00 0.00 0.00 0.00 0.00 0.00 0.00 0.00 0.00 0.00 0.00
0.15 0.23 0.42 0.65 0.91 1.75 3.65 2.36 0.26 0.14 0.12 0.11 0.17 0.10 0.01 0.00 0.00 0.00 0.00 0.00 0.00 0.00 0.01 0.01 0.02 0.03 0.02 0.06 0.07 0.04 0.02 0.00 0.00 0.00 0.00 0.00 0.00 0.00 0.00 0.00 0.00 0.00 0.00 0.00
0.16 0.18 0.39 0.59 1.03 1.66 2.55 1.48 0.27 0.33 0.39 0.15 0.07 0.01 0.00 0.00 0.00 0.00 0.00 0.00 0.00 0.00 0.01 0.08 0.11 0.08 0.04 0.02 0.04 0.13 0.10 0.02 0.04 0.03 0.01 0.04 0.01 0.00 0.00 0.00 0.00 0.00 0.00 0.00
0.18 0.20 0.39 0.54 0.89 1.23 1.64 1.37 0.39 0.17 0.24 0.13 0.06 0.00 0.00 0.00 0.02 0.01 0.00 0.00 0.01 0.00 0.02 0.09 0.24 0.21 0.21 0.04 0.02 0.05 0.14 0.14 0.14 0.08 0.04 0.02 0.00 0.00 0.00 0.00 0.00 0.00 0.00 0.00
0.26 0.28 0.40 0.50 0.67 1.09 1.42 1.52 0.88 0.60 0.32 0.12 0.03 0.03 0.01 0.01 0.04 0.04 0.00 0.02 0.00 0.00 0.03 0.13 0.13 0.18 0.19 0.13 0.06 0.01 0.05 0.17 0.30 0.18 0.12 0.04 0.00 0.00 0.00 0.00 0.00 0.00 0.00 0.00
0.23 0.34 0.39 0.45 0.52 0.79 1.43 1.75 0.80 1.26 1.03 0.16 0.10 0.12 0.06 0.01 0.02 0.05 0.01 0.01 0.02 0.04 0.08 0.10 0.08 0.04 0.02 0.10 0.16 0.09 0.06 0.16 0.25 0.31 0.22 0.05 0.00 0.00 0.00 0.01 0.01 0.00 0.00 0.00
0.19 0.31 0.33 0.34 0.46 0.69 1.04 1.79 0.72 0.99 1.36 0.36 0.12 0.14 0.16 0.06 0.05 0.07 0.02 0.12 0.08 0.22 0.24 0.06 0.03 0.01 0.00 0.01 0.05 0.15 0.19 0.18 0.21 0.27 0.28 0.09 0.01 0.03 0.04 0.02 0.00 0.00 0.00 0.00
0.16 0.24 0.35 0.31 0.37 0.68 0.83 1.39 0.80 0.68 1.06 0.82 0.19 0.14 0.15 0.08 0.01 0.02 0.03 0.04 0.02 0.07 0.20 0.09 0.04 0.02 0.02 0.00 0.00 0.02 0.08 0.13 0.16 0.15 0.16 0.06 0.04 0.06 0.10 0.08 0.04 0.01 0.01 0.00
0.21 0.24 0.29 0.40 0.48 0.62 0.79 0.82 0.60 1.13 1.41 0.79 0.46 0.18 0.09 0.16 0.05 0.02 0.14 0.03 0.00 0.02 0.02 0.05 0.08 0.06 0.02 0.01 0.00 0.00 0.00 0.01 0.02 0.03 0.01 0.00 0.03 0.04 0.02 0.01 0.01 0.02 0.02 0.02
0.27 0.25 0.29 0.42 0.78 0.63 0.58 0.47 0.51 0.82 0.70 0.56 0.40 0.29 0.11 0.11 0.18 0.11 0.08 0.07 0.06 0.07 0.15 0.14 0.14 0.12 0.03 0.01 0.01 0.00 0.00 0.03 0.03 0.01 0.00 0.00 0.02 0.02 0.02 0.01 0.00 0.00 0.01 0.00
0.32 0.33 0.41 0.66 0.81 0.82 0.73 0.30 0.31 0.41 0.39 0.33 0.18 0.21 0.15 0.07 0.12 0.13 0.10 0.11 0.17 0.20 0.29 0.30 0.13 0.04 0.03 0.01 0.03 0.01 0.02 0.04 0.04 0.01 0.03 0.03 0.00 0.01 0.03 0.01 0.00 0.00 0.00 0.00
0.37 0.47 0.61 0.59 0.67 1.35 1.21 1.24 0.85 0.48 0.36 0.40 0.20 0.16 0.07 0.11 0.11 0.11 0.08 0.12 0.22 0.24 0.23 0.22 0.21 0.12 0.17 0.08 0.02 0.00 0.02 0.05 0.08 0.04 0.03 0.04 0.03 0.02 0.02 0.01 0.01 0.02 0.01 0.01
0.50 0.50 0.43 0.44 1.01 1.33 0.43 0.44 0.35 0.32 0.32 0.44 0.29 0.11 0.14 0.15 0.19 0.28 0.18 0.21 0.33 0.40 0.38 0.26 0.16 0.17 0.28 0.19 0.07 0.01 0.01 0.02 0.02 0.01 0.02 0.05 0.06 0.05 0.03 0.04 0.05 0.04 0.03 0.01
0.36 0.41 0.53 0.68 0.83 0.61 0.23 0.05 0.05 0.18 0.36 0.37 0.35 0.17 0.40 0.33 0.28 0.37 0.29 0.32 0.38 0.55 0.59 0.37 0.14 0.21 0.42 0.52 0.18 0.04 0.02 0.01 0.01 0.00 0.00 0.00 0.02 0.04 0.04 0.05 0.07 0.12 0.14 0.14
0.59 0.84 1.00 1.02 1.06 1.02 0.29 0.13 0.16 0.23 0.31 0.27 0.25 0.31 0.53 0.57 0.40 0.46 0.41 0.40 0.41 0.30 0.34 0.47 0.40 0.27 0.47 0.41 0.16 0.11 0.05 0.01 0.00 0.00 0.00 0.00 0.00 0.01 0.02 0.02 0.03 0.04 0.05 0.07
0.65 0.74 0.82 1.28 0.88 0.30 0.32 0.52 0.65 0.52 0.28 0.26 0.20 0.23 0.60 0.64 0.45 0.47 0.52 0.51 0.33 0.16 0.15 0.24 0.46 0.51 0.24 0.07 0.10 0.09 0.09 0.10 0.06 0.02 0.01 0.01 0.02 0.02 0.02 0.03 0.03 0.03 0.03 0.03
0.28 0.50 0.81 0.86 0.40 0.40 0.46 0.39 0.46 0.33 0.19 0.16 0.15 0.18 0.46 0.67 0.46 0.50 0.37 0.87 0.67 0.22 0.15 0.17 0.27 0.36 0.21 0.07 0.03 0.04 0.07 0.05 0.03 0.03 0.04 0.05 0.06 0.06 0.06 0.07 0.09 0.08 0.06 0.05
0.18 0.29 0.46 0.50 0.48 0.33 0.13 0.16 0.31 0.16 0.22 0.26 0.17 0.17 0.18 0.43 0.47 0.57 0.29 0.53 0.78 0.92 0.40 0.43 0.43 0.23 0.05 0.02 0.04 0.04 0.05 0.05 0.05 0.07 0.07 0.07 0.09 0.12 0.11 0.10 0.11 0.11 0.10 0.12
0.19 0.19 0.26 0.23 0.09 0.07 0.14 0.28 0.31 0.27 0.14 0.14 0.15 0.16 0.24 0.25 0.45 0.53 0.32 0.43 0.51 0.87 1.01 0.49 0.37 0.17 0.07 0.06 0.05 0.06 0.07 0.10 0.12 0.12 0.12 0.12 0.15 0.16 0.16 0.18 0.25 0.24 0.31 0.48
0.07 0.06 0.02 0.13 0.13 0.20 0.25 0.41 0.46 0.30 0.18 0.14 0.13 0.23 0.40 0.34 0.43 0.51 0.43 0.55 0.54 0.59 0.53 0.34 0.28 0.29 0.27 0.24 0.23 0.20 0.28 0.32 0.35 0.43 0.44 0.44 0.45 0.52 0.59 0.66 0.73 0.62 0.71 0.85
0.18 0.04 0.11 0.22 0.38 0.27 0.31 0.37 0.33 0.30 0.31 0.36 0.46 0.63 0.49 0.35 0.43 0.38 0.36 0.31 0.26 0.24 0.29 0.33 0.43 0.44 0.43 0.48 0.52 0.53 0.56 0.55 0.57 0.60 0.57 0.64 0.64 0.52 0.62 0.70 0.65 0.53 0.53 0.53
0.04 0.10 0.25 0.24 0.30 0.31 0.34 0.32 0.28 0.34 0.50 0.54 0.45 0.46 0.36 0.33 0.25 0.18 0.22 0.18 0.23 0.31 0.37 0.54 0.63 0.61 0.61 0.61 0.59 0.60 0.62 0.60 0.61 0.60 0.54 0.50 0.46 0.41 0.46 0.45 0.43 0.43 0.34 0.33
0.15 0.29 0.38 0.39 0.35 0.38 0.42 0.39 0.33 0.34 0.30 0.25 0.23 0.18 0.22 0.19 0.12 0.15 0.16 0.26 0.36 0.42 0.44 0.52 0.61 0.63 0.69 0.67 0.57 0.58 0.54 0.51 0.53 0.51 0.47 0.47 0.48 0.35 0.22 0.27 0.36 0.25 0.22 0.19

GFSNW_prec_precacc24_069.txt.gz
Total_Precipitation_Accumulation
0.07 0.09 0.12 0.16 0.15 0.24 0.62 0.91 0.68 0.17 0.19 0.52 0.40 0.22 0.05 0.00 0.00 0.00 0.00 0.00 0.00 0.00 0.00 0.00 0.01 0.04 0.03 0.03 0.00 0.00 0.00 0.00 0.00 0.00 0.00 0.00 0.00 0.00 0.00 0.00 0.00 0.00 0.01 0.00
0.11 0.12 0.13 0.15 0.14 0.38 0.81 1.16 0.60 0.35 0.37 0.33 0.22 0.14 0.03 0.01 0.00 0.00 0.00 0.00 0.00 0.00 0.00 0.00 0.00 0.03 0.03 0.01 0.01 0.00 0.02 0.01 0.00 0.02 0.01 0.00 0.00 0.00 0.00 0.00 0.00 0.01 0.03 0.00
0.13 0.13 0.17 0.19 0.17 0.39 1.12 1.57 0.91 0.78 0.67 0.24 0.10 0.12 0.07 0.02 0.00 0.00 0.00 0.00 0.01 0.01 0.01 0.00 0.00 0.01 0.02 0.01 0.01 0.00 0.02 0.03 0.00 0.01 0.00 0.00 0.00 0.00 0.00 0.00 0.00 0.00 0.00 0.00
0.13 0.15 0.17 0.24 0.28 0.51 1.67 2.11 0.80 0.33 0.44 0.28 0.12 0.10 0.07 0.03 0.02 0.01 0.01 0.01 0.00 0.01 0.01 0.01 0.00 0.00 0.01 0.01 0.01 0.01 0.00 0.06 0.04 0.00 0.00 0.00 0.00 0.00 0.00 0.00 0.00 0.00 0.00 0.00
0.19 0.17 0.17 0.22 0.37 0.84 2.32 2.24 0.38 0.20 0.14 0.11 0.17 0.13 0.10 0.03 0.03 0.05 0.03 0.01 0.00 0.01 0.01 0.01 0.00 0.03 0.05 0.05 0.01 0.01 0.00 0.06 0.08 0.01 0.00 0.00 0.00 0.00 0.00 0.00 0.00 0.00 0.00 0.00
0.14 0.19 0.21 0.22 0.37 1.32 2.97 2.09 0.30 0.25 0.18 0.13 0.30 0.23 0.05 0.04 0.04 0.05 0.02 0.01 0.02 0.04 0.05 0.03 0.02 0.03 0.02 0.06 0.07 0.04 0.02 0.03 0.05 0.04 0.00 0.00 0.01 0.00 0.00 0.00 0.00 0.00 0.00 0.00
0.13 0.13 0.17 0.23 0.33 1.10 2.07 1.37 0.32 0.37 0.40 0.15 0.11 0.05 0.08 0.10 0.06 0.06 0.03 0.01 0.03 0.04 0.01 0.06 0.11 0.08 0.04 0.02 0.04 0.13 0.10 0.04 0.07 0.10 0.02 0.06 0.02 0.00 0.00 0.00 0.00 0.00 0.00 0.00
0.16 0.16 0.17 0.22 0.33 0.64 1.58 1.46 0.51 0.24 0.22 0.11 0.07 0.02 0.04 0.07 0.15 0.06 0.05 0.06 0.06 0.04 0.04 0.12 0.26 0.21 0.21 0.04 0.02 0.05 0.14 0.14 0.16 0.10 0.07 0.05 0.00 0.00 0.00 0.01 0.00 0.00 0.00 0.00
0.26 0.24 0.19 0.22 0.29 0.51 1.28 1.68 0.96 0.68 0.43 0.12 0.02 0.03 0.02 0.06 0.09 0.07 0.07 0.11 0.08 0.12 0.09 0.18 0.18 0.21 0.19 0.13 0.04 0.01 0.05 0.17 0.30 0.20 0.13 0.05 0.00 0.00 0.00 0.00 0.01 0.00 0.00 0.00
0.26 0.27 0.27 0.27 0.29 0.43 1.33 1.88 0.88 1.30 1.16 0.17 0.06 0.08 0.05 0.04 0.07 0.10 0.07 0.07 0.10 0.14 0.15 0.16 0.13 0.09 0.03 0.11 0.16 0.09 0.06 0.16 0.25 0.31 0.23 0.05 0.00 0.00 0.00 0.02 0.03 0.00 0.00 0.00
0.14 0.23 0.27 0.27 0.35 0.45 1.03 1.91 0.78 1.03 1.41 0.33 0.08 0.07 0.06 0.03 0.08 0.16 0.11 0.19 0.17 0.31 0.31 0.12 0.07 0.04 0.02 0.01 0.08 0.16 0.19 0.18 0.21 0.27 0.29 0.11 0.01 0.04 0.06 0.02 0.00 0.00 0.00 0.00
0.16 0.15 0.22 0.26 0.32 0.49 0.87 1.59 0.89 0.67 1.06 0.67 0.17 0.10 0.09 0.05 0.04 0.09 0.15 0.11 0.10 0.11 0.26 0.13 0.08 0.03 0.02 0.01 0.02 0.02 0.10 0.13 0.16 0.16 0.17 0.09 0.05 0.07 0.10 0.08 0.04 0.01 0.01 0.00
0.17 0.19 0.19 0.28 0.35 0.49 0.95 1.08 0.66 1.20 1.68 0.84 0.47 0.19 0.05 0.05 0.04 0.04 0.12 0.06 0.04 0.07 0.08 0.13 0.14 0.09 0.03 0.03 0.01 0.01 0.00 0.00 0.04 0.05 0.02 0.02 0.04 0.04 0.02 0.01 0.01 0.02 0.02 0.02
0.20 0.16 0.23 0.25 0.44 0.56 0.91 0.79 0.63 0.92 0.86 0.61 0.40 0.25 0.09 0.05 0.10 0.11 0.09 0.09 0.09 0.12 0.19 0.18 0.19 0.16 0.04 0.04 0.03 0.01 0.00 0.02 0.02 0.01 0.00 0.01 0.02 0.02 0.02 0.01 0.00 0.00 0.01 0.00
0.22 0.20 0.27 0.31 0.48 0.90 1.03 0.53 0.41 0.45 0.42 0.34 0.19 0.20 0.11 0.04 0.04 0.11 0.15 0.17 0.22 0.29 0.35 0.35 0.19 0.10 0.06 0.03 0.05 0.02 0.04 0.06 0.06 0.04 0.04 0.03 0.02 0.01 0.03 0.01 0.00 0.00 0.00 0.00
0.26 0.27 0.28 0.39 0.62 1.48 1.50 1.59 1.24 0.58 0.46 0.43 0.23 0.14 0.06 0.08 0.05 0.07 0.12 0.20 0.30 0.34 0.34 0.26 0.29 0.15 0.22 0.15 0.06 0.04 0.04 0.05 0.07 0.04 0.03 0.04 0.03 0.02 0.02 0.01 0.01 0.02 0.01 0.01
0.32 0.31 0.33 0.54 1.12 1.37 0.44 0.48 0.48 0.45 0.40 0.50 0.32 0.12 0.13 0.11 0.11 0.16 0.17 0.21 0.43 0.46 0.45 0.27 0.16 0.21 0.34 0.23 0.10 0.04 0.01 0.02 0.02 0.01 0.02 0.05 0.06 0.05 0.03 0.04 0.05 0.04 0.03 0.01
0.33 0.47 0.60 0.91 0.92 0.67 0.29 0.04 0.05 0.19 0.40 0.42 0.40 0.22 0.30 0.25 0.18 0.17 0.19 0.28 0.36 0.65 0.64 0.40 0.16 0.23 0.47 0.59 0.19 0.04 0.02 0.01 0.01 0.00 0.00 0.00 0.02 0.04 0.04 0.05 0.07 0.12 0.14 0.14
0.70 1.01 1.42 1.61 1.30 1.10 0.29 0.12 0.19 0.26 0.35 0.32 0.27 0.28 0.26 0.33 0.17 0.20 0.28 0.29 0.48 0.30 0.36 0.48 0.45 0.31 0.56 0.48 0.17 0.11 0.05 0.01 0.00 0.00 0.00 0.00 0.00 0.01 0.02 0.02 0.03 0.04 0.06 0.08
1.05 1.24 1.46 1.89 1.07 0.28 0.33 0.69 0.79 0.64 0.29 0.18 0.19 0.21 0.18 0.34 0.21 0.21 0.36 0.32 0.24 0.19 0.12 0.21 0.50 0.60 0.27 0.08 0.10 0.09 0.09 0.10 0.06 0.02 0.01 0.01 0.02 0.02 0.02 0.03 0.03 0.04 0.05 0.06
0.52 0.73 1.11 1.16 0.52 0.40 0.48 0.53 0.43 0.29 0.20 0.16 0.15 0.16 0.15 0.32 0.31 0.36 0.30 0.52 0.42 0.17 0.16 0.18 0.30 0.36 0.22 0.08 0.03 0.04 0.07 0.04 0.03 0.04 0.05 0.06 0.06 0.06 0.07 0.09 0.11 0.11 0.12 0.14
0.13 0.36 0.68 0.72 0.63 0.44 0.16 0.16 0.24 0.14 0.24 0.26 0.16 0.15 0.16 0.28 0.27 0.51 0.32 0.49 0.70 0.78 0.36 0.41 0.39 0.21 0.05 0.02 0.04 0.04 0.05 0.05 0.06 0.07 0.08 0.08 0.09 0.11 0.09 0.10 0.11 0.12 0.13 0.15
0.06 0.09 0.25 0.26 0.11 0.06 0.07 0.11 0.19 0.22 0.20 0.18 0.19 0.14 0.25 0.26 0.37 0.57 0.36 0.52 0.50 0.66 0.83 0.38 0.29 0.14 0.06 0.06 0.05 0.06 0.07 0.07 0.07 0.09 0.11 0.11 0.13 0.14 0.14 0.16 0.21 0.17 0.17 0.29
0.03 0.02 0.01 0.03 0.03 0.07 0.10 0.16 0.25 0.22 0.19 0.21 0.17 0.19 0.42 0.39 0.44 0.48 0.38 0.46 0.39 0.33 0.36 0.23 0.19 0.18 0.17 0.15 0.13 0.11 0.16 0.16 0.16 0.20 0.20 0.22 0.22 0.26 0.28 0.31 0.37 0.28 0.36 0.51
0.00 0.00 0.03 0.06 0.17 0.10 0.10 0.13 0.15 0.19 0.27 0.33 0.32 0.47 0.40 0.31 0.33 0.23 0.23 0.19 0.16 0.16 0.21 0.24 0.28 0.23 0.20 0.23 0.25 0.28 0.32 0.32 0.33 0.36 0.32 0.37 0.37 0.29 0.39 0.48 0.44 0.36 0.38 0.39
0.01 0.05 0.10 0.07 0.09 0.07 0.08 0.11 0.14 0.18 0.29 0.28 0.18 0.31 0.26 0.24 0.13 0.08 0.11 0.10 0.14 0.19 0.21 0.34 0.36 0.36 0.38 0.39 0.39 0.42 0.44 0.42 0.42 0.43 0.40 0.39 0.37 0.34 0.38 0.37 0.35 0.36 0.30 0.30
0.05 0.11 0.13 0.11 0.10 0.13 0.15 0.15 0.13 0.14 0.12 0.09 0.06 0.08 0.14 0.11 0.05 0.07 0.09 0.16 0.24 0.28 0.27 0.30 0.34 0.37 0.44 0.44 0.39 0.42 0.40 0.38 0.39 0.38 0.36 0.37 0.39 0.29 0.21 0.24 0.32 0.22 0.18 0.15

GFSNW_prec_precacc24_075.txt.gz
Total_Precipitation_Accumulation
0.07 0.09 0.12 0.15 0.13 0.23 0.57 0.81 0.62 0.16 0.23 0.49 0.40 0.23 0.05 0.00 0.00 0.00 0.00 0.00 0.00 0.00 0.00 0.00 0.01 0.07 0.06 0.03 0.00 0.00 0.01 0.03 0.01 0.01 0.01 0.01 0.04 0.04 0.06 0.10 0.03 0.00 0.02 0.06
0.10 0.11 0.14 0.14 0.14 0.47 0.82 1.03 0.50 0.32 0.64 0.43 0.22 0.15 0.04 0.01 0.00 0.00 0.00 0.00 0.00 0.00 0.00 0.01 0.00 0.06 0.06 0.01 0.02 0.00 0.03 0.03 0.02 0.04 0.03 0.02 0.07 0.03 0.03 0.06 0.08 0.06 0.02 0.02
0.12 0.12 0.14 0.12 0.11 0.43 1.14 1.60 0.90 0.62 0.70 0.54 0.19 0.19 0.09 0.03 0.00 0.00 0.00 0.00 0.01 0.01 0.01 0.01 0.01 0.05 0.08 0.01 0.02 0.00 0.02 0.03 0.02 0.02 0.14 0.30 0.19 0.04 0.01 0.06 0.17 0.05 0.01 0.01
0.12 0.14 0.17 0.18 0.12 0.43 1.47 1.83 0.78 0.35 0.41 0.29 0.18 0.20 0.25 0.11 0.04 0.02 0.01 0.01 0.00 0.01 0.02 0.01 0.00 0.00 0.03 0.03 0.01 0.01 0.02 0.09 0.09 0.04 0.03 0.06 0.13 0.16 0.08 0.10 0.07 0.06 0.01 0.01
0.15 0.14 0.15 0.22 0.27 0.55 1.77 1.54 0.34 0.26 0.29 0.20 0.24 0.15 0.11 0.06 0.06 0.07 0.05 0.02 0.00 0.01 0.01 0.01 0.00 0.00 0.01 0.05 0.05 0.02 0.01 0.07 0.15 0.04 0.01 0.07 0.13 0.14 0.09 0.09 0.06 0.06 0.04 0.04
0.15 0.16 0.16 0.19 0.28 0.80 1.85 1.08 0.24 0.31 0.24 0.15 0.41 0.34 0.08 0.05 0.05 0.05 0.04 0.05 0.06 0.05 0.07 0.04 0.01 0.01 0.03 0.02 0.06 0.08 0.04 0.07 0.16 0.25 0.08 0.08 0.10 0.05 0.09 0.11 0.07 0.05 0.08 0.06
0.15 0.16 0.16 0.19 0.29 0.69 1.01 0.61 0.31 0.38 0.32 0.11 0.12 0.09 0.15 0.15 0.08 0.06 0.04 0.03 0.09 0.12 0.04 0.02 0.03 0.02 0.00 0.01 0.01 0.09 0.09 0.07 0.18 0.23 0.12 0.17 0.05 0.02 0.03 0.09 0.09 0.03 0.04 0.03
0.26 0.24 0.21 0.22 0.31 0.47 0.75 0.73 0.53 0.30 0.18 0.10 0.07 0.03 0.07 0.12 0.20 0.09 0.06 0.09 0.17 0.12 0.05 0.08 0.05 0.03 0.03 0.00 0.00 0.01 0.11 0.13 0.23 0.18 0.18 0.14 0.03 0.10 0.04 0.07 0.11 0.09 0.08 0.07
0.41 0.37 0.27 0.23 0.28 0.43 0.78 0.92 0.73 0.64 0.44 0.11 0.03 0.03 0.03 0.08 0.14 0.13 0.10 0.21 0.16 0.19 0.13 0.14 0.12 0.09 0.06 0.02 0.01 0.00 0.03 0.16 0.27 0.22 0.24 0.12 0.02 0.05 0.07 0.16 0.32 0.15 0.39 0.19
0.32 0.33 0.34 0.31 0.28 0.39 0.87 1.19 0.63 0.99 0.91 0.14 0.08 0.10 0.11 0.08 0.13 0.15 0.18 0.18 0.13 0.13 0.13 0.17 0.15 0.13 0.09 0.12 0.10 0.03 0.04 0.15 0.23 0.28 0.29 0.08 0.02 0.00 0.02 0.23 0.27 0.16 0.14 0.03
0.13 0.23 0.28 0.29 0.35 0.41 0.86 1.34 0.61 0.66 0.96 0.27 0.05 0.04 0.06 0.08 0.16 0.29 0.31 0.45 0.22 0.12 0.11 0.11 0.10 0.12 0.12 0.13 0.19 0.05 0.10 0.16 0.20 0.24 0.25 0.12 0.05 0.14 0.19 0.09 0.08 0.04 0.01 0.00
0.14 0.14 0.19 0.31 0.34 0.49 0.79 1.34 0.69 0.49 0.75 0.47 0.11 0.04 0.04 0.06 0.14 0.42 0.51 0.41 0.29 0.09 0.12 0.16 0.17 0.17 0.11 0.06 0.14 0.09 0.08 0.09 0.13 0.15 0.17 0.15 0.08 0.14 0.13 0.09 0.05 0.01 0.01 0.00
0.12 0.16 0.16 0.22 0.32 0.48 0.91 0.97 0.49 0.82 1.23 0.59 0.31 0.16 0.03 0.03 0.03 0.16 0.32 0.29 0.16 0.19 0.20 0.26 0.18 0.18 0.12 0.09 0.10 0.16 0.07 0.02 0.10 0.12 0.20 0.11 0.05 0.01 0.01 0.01 0.01 0.02 0.02 0.01
0.10 0.12 0.19 0.20 0.33 0.54 0.99 0.81 0.42 0.52 0.58 0.46 0.25 0.14 0.08 0.04 0.06 0.09 0.13 0.16 0.22 0.21 0.28 0.36 0.26 0.23 0.12 0.19 0.13 0.28 0.31 0.06 0.14 0.28 0.78 0.34 0.16 0.00 0.00 0.00 0.00 0.00 0.01 0.00
0.15 0.14 0.17 0.26 0.41 0.82 1.16 0.64 0.26 0.20 0.29 0.38 0.22 0.15 0.09 0.03 0.04 0.05 0.14 0.17 0.20 0.24 0.26 0.22 0.16 0.15 0.11 0.24 0.13 0.31 0.22 0.18 0.28 0.30 0.45 0.42 0.21 0.02 0.00 0.00 0.00 0.00 0.00 0.00
0.23 0.17 0.16 0.34 0.60 1.53 1.88 1.96 1.13 0.37 0.40 0.51 0.34 0.20 0.07 0.05 0.04 0.07 0.13 0.23 0.29 0.31 0.25 0.15 0.18 0.18 0.34 0.33 0.28 0.25 0.06 0.06 0.08 0.08 0.08 0.06 0.03 0.02 0.02 0.01 0.01 0.02 0.01 0.01
0.24 0.22 0.27 0.53 1.17 1.59 0.60 0.50 0.41 0.40 0.47 0.73 0.46 0.16 0.15 0.10 0.10 0.17 0.19 0.25 0.42 0.35 0.29 0.15 0.14 0.23 0.41 0.35 0.35 0.30 0.14 0.04 0.02 0.01 0.02 0.05 0.06 0.05 0.03 0.04 0.05 0.04 0.03 0.01
0.28 0.39 0.52 0.90 0.98 0.77 0.38 0.07 0.05 0.20 0.56 0.56 0.50 0.28 0.34 0.23 0.16 0.22 0.23 0.34 0.39 0.52 0.35 0.18 0.12 0.24 0.46 0.62 0.22 0.06 0.03 0.02 0.01 0.00 0.00 0.00 0.02 0.04 0.04 0.05 0.07 0.12 0.14 0.14
0.62 0.98 1.53 1.89 1.41 1.21 0.43 0.16 0.20 0.28 0.45 0.40 0.33 0.30 0.28 0.33 0.16 0.22 0.21 0.25 0.47 0.29 0.23 0.18 0.27 0.34 0.58 0.44 0.16 0.11 0.05 0.01 0.00 0.00 0.00 0.00 0.00 0.01 0.02 0.02 0.03 0.04 0.06 0.08
1.30 1.50 1.71 1.92 1.10 0.35 0.47 0.95 1.13 0.94 0.40 0.21 0.24 0.34 0.21 0.35 0.17 0.17 0.24 0.17 0.14 0.19 0.09 0.08 0.20 0.32 0.21 0.06 0.04 0.04 0.08 0.10 0.06 0.02 0.02 0.01 0.02 0.03 0.03 0.03 0.04 0.04 0.05 0.07
0.64 0.96 1.18 1.18 0.62 0.45 0.59 0.77 0.63 0.43 0.25 0.16 0.18 0.32 0.23 0.32 0.17 0.09 0.13 0.42 0.23 0.14 0.12 0.11 0.22 0.24 0.18 0.06 0.01 0.02 0.06 0.04 0.03 0.04 0.05 0.06 0.07 0.07 0.08 0.09 0.11 0.12 0.12 0.15
0.21 0.43 0.76 0.86 0.62 0.39 0.22 0.23 0.21 0.16 0.24 0.21 0.14 0.25 0.21 0.30 0.30 0.11 0.10 0.31 0.53 0.52 0.30 0.20 0.22 0.15 0.03 0.01 0.02 0.03 0.04 0.04 0.04 0.06 0.08 0.08 0.10 0.11 0.10 0.11 0.12 0.14 0.15 0.16
0.03 0.04 0.18 0.19 0.11 0.09 0.12 0.09 0.08 0.14 0.16 0.15 0.15 0.14 0.20 0.18 0.17 0.12 0.07 0.17 0.24 0.29 0.48 0.25 0.14 0.08 0.03 0.03 0.03 0.04 0.05 0.06 0.07 0.09 0.10 0.10 0.13 0.14 0.14 0.16 0.20 0.17 0.17 0.26
0.03 0.01 0.01 0.02 0.02 0.06 0.09 0.10 0.07 0.09 0.15 0.18 0.12 0.06 0.15 0.12 0.05 0.06 0.05 0.11 0.09 0.07 0.10 0.15 0.15 0.11 0.09 0.07 0.07 0.06 0.11 0.11 0.12 0.16 0.15 0.16 0.16 0.19 0.20 0.22 0.27 0.18 0.22 0.31
0.00 0.00 0.02 0.04 0.11 0.09 0.10 0.12 0.11 0.13 0.21 0.25 0.19 0.16 0.13 0.09 0.06 0.04 0.06 0.03 0.04 0.07 0.10 0.14 0.15 0.12 0.11 0.12 0.14 0.16 0.20 0.21 0.21 0.23 0.20 0.23 0.23 0.16 0.22 0.28 0.25 0.19 0.21 0.22
0.00 0.03 0.06 0.06 0.10 0.10 0.10 0.13 0.16 0.19 0.24 0.20 0.13 0.17 0.14 0.10 0.07 0.05 0.08 0.10 0.11 0.14 0.14 0.23 0.23 0.23 0.24 0.24 0.24 0.26 0.28 0.27 0.27 0.27 0.24 0.24 0.22 0.20 0.23 0.22 0.20 0.20 0.16 0.16
0.01 0.04 0.07 0.08 0.08 0.11 0.16 0.18 0.19 0.17 0.12 0.05 0.04 0.06 0.11 0.07 0.04 0.06 0.06 0.13 0.19 0.22 0.20 0.20 0.24 0.24 0.28 0.29 0.27 0.29 0.28 0.26 0.26 0.25 0.24 0.23 0.23 0.18 0.13 0.14 0.18 0.12 0.09 0.06